Weather Roundup
Issued by NWS Chicago, IL

Home | Current Version | Previous Version | Graphics & Text | Print | Product List | Glossary On
Versions: 1 2 3 4 5 6 7 8 9 10 11 12 13 14 15 16 17 18 19 20 21 22 23 24 25 26 27 28 29 30 31 32 33 34 35 36 37 38 39 40 41 42 43 44 45 46 47 48 49 50
000
NZUS59 KLOT 301004
HRRLOT

CHICAGO AREA WEATHER ROUNDUP
NATIONAL WEATHER SERVICE CHICAGO/ROMEOVILLE IL
500 AM CDT SUN APR 30 2017

NOTE: "FAIR" INDICATES FEW OR NO CLOUDS BELOW 12,000 FEET WITH NO
SIGNIFICANT WEATHER AND/OR OBSTRUCTIONS TO VISIBILITY.

* THESE STATIONS ARE NOT UNDER NWS QUALITY CONTROL. THEY ALSO MAY NOT
  REPORT WEATHER SUCH AS PRECIPITATION OR FOG.

ILZ005-006-012>014-019>023-301100-
NORTHEAST ILLINOIS

CITY           SKY/WX    TMP DP  RH WIND       PRES   REMARKS
OHARE          DRIZZLE   42  40  92 NE13      29.93R
MIDWAY         CLOUDY    44  43  96 NE15G23   29.91F
AURORA         CLOUDY    43  42  97 NE14G24   29.91R
LANSING*       LGT RAIN  45  45 100 NE6       29.90F
WAUKEGAN       CLOUDY    40  40 100 NE16G25   29.95R FOG
DUPAGE AIRPORT CLOUDY    42  42 100 NE15      29.92R FOG
WHEELING       CLOUDY    41  41 100 NE10G21   29.96R FOG
MORRIS*        RAIN      44  43  95 NE7       29.89R
NORTHERLY ISL    N/A     43  41  93 NE18        N/A
$$

WIZ051-052-058>065-066-070>072-301100-
SOUTHEAST WISCONSIN

CITY           SKY/WX    TMP DP  RH WIND       PRES   REMARKS
MILWAUKEE      LGT RAIN  41  40  96 NE22      30.01S FOG
KENOSHA*       CLOUDY    41  39  93 NE20      29.98R FOG
RACINE*        CLOUDY    41  38  89 NE20G26   30.01S FOG
$$

INZ001>003-010>013-019-020-301100-
NORTHWEST INDIANA

CITY           SKY/WX    TMP DP  RH WIND       PRES   REMARKS
GARY*          LGT RAIN  46  45  93 NE7       29.91F
MICHIGAN CITY* NOT AVBL
RENSSELAER*    NOT AVBL
VALPARAISO     LGT RAIN  47  45  93 E14       29.89F FOG
$$

LMZ740>746-301100-
SOUTHERN LAKE MICHIGAN

STATION/POSITION TIME  SKY/WX   TEMP WIND        PRES    VSBY
                                AIR  DIR/SP/G
                 (UTC)          (F)  (DEG/KT/KT) (MB)    (MI)
HARRISON CRIB    0930            43   40/ 18/ 20   N/A
BURNHAM HARBOR   1000            43   20/ 16/ 20   N/A
CALUMET HARBOR   0930            44   30/ 11/ 15 1012.8F
BURNS HARBOR     0940            46   CALM  /  1 1012.9F
MICHIGAN CITY    0940            45   70/  9/ 10   N/A
$$

ABBREVIATIONS USED IN REMARKS
   TC - TEMPERATURE IN CELSIUS
  WCI - WIND CHILL INDEX
   HX - HEAT INDEX
  VSB - VISIBILITY
$$



USA.gov is the U.S. government's official web portal to all federal, state and local government web resources and services.